GFSNIL_prec_cloud_003.txt.gz
Cloud_Cover
87 90 98 99 100 98 98 93 72 6 0 0 0 4 8 15 6 97 82 44 68 84
99 100 58 95 100 31 8 83 7 29 2 2 38 9 6 10 1 8 5 5 5 5
100 100 100 99 6 5 8 61 98 18 0 0 0 0 0 0 0 0 3 5 5 5
44 19 6 5 5 5 2 1 0 0 0 0 3 0 0 0 0 0 1 5 5 36
93 36 50 29 5 5 1 0 0 0 0 0 0 0 0 3 5 3 5 5 5 5
5 41 100 100 99 100 100 100 83 0 0 0 0 4 3 5 2 5 5 9 5 5
4 6 99 73 27 90 100 92 1 1 0 0 2 5 5 0 0 4 5 4 0 0
5 47 40 87 49 100 100 100 100 86 0 5 5 4 5 31 8 5 5 5 4 0
0 5 5 79 100 100 94 33 100 35 5 0 5 5 84 36 74 88 78 4 5 5
2 6 54 46 100 100 100 91 100 7 16 5 5 52 75 76 30 5 5 13 5 5
0 0 5 40 100 100 100 100 1 100 6 5 17 24 4 5 7 77 96 94 55 22
3 5 9 85 100 100 78 6 100 64 5 0 0 2 5 34 53 58 71 72 89 91
0 36 99 70 84 100 95 100 50 5 0 4 5 5 10 71 100 82 100 100 100 100
3 5 9 50 100 100 94 52 5 5 13 79 4 5 64 94 100 100 100 100 100 100

GFSNIL_prec_cloud_006.txt.gz
Cloud_Cover
49 100 100 100 85 100 100 100 37 11 5 78 12 0 3 0 0 0 1 0 2 9
100 100 99 96 3 2 1 5 5 7 6 1 0 0 0 0 0 0 0 0 0 5
4 2 1 0 3 69 56 53 96 96 97 31 20 71 12 99 0 0 0 0 0 0
9 22 28 6 5 6 31 100 100 100 100 100 100 60 83 9 0 0 0 4 4 5
6 5 5 5 10 10 17 79 100 100 100 100 100 12 0 0 5 47 65 16 7 5
5 0 0 0 4 8 69 99 100 95 100 100 100 100 62 1 5 5 5 5 5 5
0 0 0 28 88 100 100 93 100 100 100 100 100 28 2 5 5 5 14 80 87 31
0 0 0 7 5 84 100 60 98 100 100 100 6 5 5 5 6 94 38 2 0 4
0 0 0 0 5 40 85 97 100 100 98 2 3 5 5 5 5 0 5 5 5 5
5 0 0 2 11 24 55 92 100 99 26 5 5 3 5 5 5 17 5 5 5 5
0 1 0 38 86 100 99 90 95 10 5 5 3 4 5 28 85 90 68 5 5 6
0 4 0 11 20 81 17 71 89 100 54 5 5 5 18 97 95 43 5 48 53 94
1 1 5 5 45 44 64 81 100 100 5 15 6 5 9 92 27 10 31 38 99 100
0 5 54 94 46 6 96 100 100 27 77 29 4 5 5 60 100 99 84 54 94 100

GFSNIL_prec_cloud_009.txt.gz
Cloud_Cover
5 6 13 97 95 86 40 4 5 14 92 84 100 99 100 100 82 10 75 45 0 0
5 61 74 69 11 4 0 2 48 98 99 100 100 100 100 97 100 58 1 75 66 0
5 5 5 5 0 0 4 50 41 60 86 100 77 96 100 90 91 69 88 84 81 5
5 2 3 3 0 0 33 100 100 62 81 96 100 100 100 99 100 100 78 76 5 5
5 4 0 0 0 18 100 99 98 85 76 92 100 72 17 46 100 100 86 5 55 70
0 0 0 0 0 0 0 1 43 12 5 5 89 74 97 99 94 6 5 98 91 57
0 0 0 0 0 0 3 22 10 13 5 29 100 100 5 4 5 5 53 76 5 2
5 5 3 0 0 5 77 92 5 5 68 98 58 8 4 5 5 5 5 4 5 5
5 5 0 0 5 5 82 79 92 95 100 98 5 5 5 5 5 5 40 88 35 19
5 5 0 0 5 5 28 97 93 56 5 62 8 40 5 6 72 98 86 98 100 36
5 5 0 0 5 5 41 5 5 5 24 45 98 5 5 26 68 28 15 5 5 60
0 0 2 5 5 31 16 5 5 93 100 100 7 5 8 5 50 16 5 5 5 95
2 5 2 5 5 61 86 72 81 100 99 96 64 5 5 13 59 32 18 5 6 59
5 5 2 5 7 75 75 64 30 65 84 33 4 5 5 5 5 44 91 81 60 82

GFSNIL_prec_cloud_012.txt.gz
Cloud_Cover
0 3 0 0 4 5 6 5 5 2 1 4 66 44 75 100 97 86 58 66 82 77
5 5 5 6 26 5 5 4 1 5 5 99 73 94 98 100 100 92 18 99 100 58
65 5 5 5 5 5 0 0 0 10 82 85 62 91 99 84 5 79 52 1 3 5
5 0 5 2 4 4 0 0 19 87 29 50 97 5 5 19 29 3 0 4 1 5
5 5 5 5 3 0 1 5 2 18 95 100 83 80 5 35 38 5 0 0 3 5
16 8 5 5 2 5 5 2 37 99 100 58 100 91 100 37 2 0 0 5 5 5
5 5 5 5 5 5 5 11 100 100 90 40 89 100 100 49 0 0 4 5 5 4
5 5 5 5 5 5 4 22 100 51 87 92 98 100 50 5 1 5 5 5 5 35
45 8 34 39 24 0 5 30 5 82 92 100 100 6 5 5 5 5 5 72 90 5
12 90 100 18 4 0 5 5 5 27 5 10 5 11 57 10 5 5 10 5 5 6
80 100 28 5 0 4 5 76 84 51 72 61 72 50 37 7 5 5 5 5 5 14
100 28 5 0 4 5 5 48 100 100 99 100 80 65 8 5 5 5 5 5 5 78
16 5 5 5 6 5 75 98 75 24 5 12 96 28 5 5 5 55 7 8 14 6
5 5 73 14 59 5 5 5 42 5 45 97 8 5 4 5 5 17 76 44 40 59

GFSNIL_prec_cloud_015.txt.gz
Cloud_Cover
44 77 79 48 3 0 4 5 5 5 13 5 5 62 100 100 10 3 4 3 5 5
43 80 64 21 5 5 5 6 35 9 5 4 90 26 7 6 0 0 0 0 0 0
94 89 56 5 5 13 46 32 5 5 5 85 88 5 5 4 5 4 8 4 0 1
66 5 5 22 51 14 26 5 5 11 90 97 87 34 97 83 88 99 10 4 3 0
19 48 55 16 5 2 5 3 1 10 87 81 5 100 17 80 100 96 40 7 0 2
13 5 5 5 5 5 2 5 5 5 5 68 100 93 100 100 100 100 67 4 5 5
5 5 19 22 6 27 34 39 5 5 65 96 90 100 100 100 97 9 5 5 5 13
5 52 68 30 96 99 57 13 5 6 40 100 97 100 100 74 7 39 75 5 5 5
87 93 100 100 100 100 36 2 5 5 6 8 45 5 22 92 98 49 5 2 5 5
100 100 100 99 82 5 2 0 5 11 75 78 89 96 98 16 5 5 4 5 5 7
100 93 54 78 53 0 0 2 5 6 6 15 89 97 32 5 1 0 5 5 19 99
100 70 68 38 6 5 4 5 5 5 5 5 8 5 5 4 5 5 5 28 94 100
38 50 100 98 5 5 5 3 5 5 5 5 5 5 5 2 5 25 29 43 24 100
53 100 52 5 5 5 5 5 5 5 5 5 5 5 5 5 47 74 64 5 5 82

GFSNIL_prec_cloud_018.txt.gz
Cloud_Cover
96 100 100 100 98 91 5 5 11 68 32 5 31 91 100 94 99 100 90 85 83 98
95 70 78 98 91 8 14 67 23 5 5 24 99 89 97 98 94 97 95 100 100 100
8 58 100 99 5 12 8 5 5 5 6 89 35 69 70 87 31 100 100 100 100 100
89 97 42 5 5 5 5 5 14 5 5 51 14 29 82 62 50 98 100 100 100 100
74 5 5 5 5 5 14 12 5 5 5 61 99 78 81 100 84 100 100 100 100 100
5 5 5 6 34 25 17 97 91 5 85 84 61 30 59 78 100 100 99 95 14 69
70 5 5 42 16 36 98 48 5 61 93 84 25 80 92 97 100 99 94 66 58 76
10 29 64 52 85 100 27 6 14 26 93 59 69 66 81 96 96 71 97 71 26 4
37 85 66 89 50 5 33 65 22 46 88 53 69 5 55 95 84 94 60 5 0 1
49 83 86 100 100 51 71 5 24 87 22 30 70 5 17 83 90 5 5 1 0 5
87 100 100 93 11 97 61 42 100 100 53 64 43 5 5 5 5 5 5 5 5 5
100 99 90 100 72 98 58 94 100 56 70 89 87 5 5 5 5 5 5 5 5 5
100 100 100 100 43 100 89 71 5 5 5 8 71 5 5 5 5 85 54 11 5 5
100 100 100 100 100 62 91 6 5 5 5 5 5 49 5 5 6 79 39 54 49 5

GFSNIL_prec_cloud_021.txt.gz
Cloud_Cover
83 76 100 80 89 6 5 61 5 4 5 5 73 56 47 21 51 89 92 26 97 72
87 100 72 5 5 5 5 5 5 5 14 49 45 23 50 66 48 84 45 90 97 75
100 100 100 97 24 5 5 5 5 7 22 58 11 51 78 19 58 83 13 100 100 95
93 100 98 46 7 5 5 5 45 51 41 6 5 48 43 44 88 77 72 100 95 71
100 97 95 25 5 5 5 59 44 16 47 45 89 53 97 57 11 22 93 100 83 100
100 100 68 11 92 39 28 51 25 7 14 43 74 65 100 100 100 98 100 100 100 97
95 89 54 100 99 39 70 86 50 77 48 96 100 100 93 56 100 100 100 92 99 100
82 96 98 92 63 83 98 100 100 40 10 95 88 74 36 24 87 98 95 96 87 95
100 100 100 87 86 100 100 92 6 13 88 100 69 98 86 0 5 61 100 100 62 5
97 100 100 96 97 86 82 56 70 92 50 83 98 23 0 4 5 25 72 50 20 6
100 100 100 100 100 100 90 87 98 100 99 75 86 35 1 2 0 48 82 64 60 64
100 100 100 100 100 100 100 72 100 100 98 65 92 19 4 5 5 96 98 99 91 47
100 100 100 100 100 100 93 100 100 100 87 100 13 5 5 5 6 89 99 98 97 100
100 100 100 100 100 100 100 100 100 100 100 93 54 94 23 5 5 81 70 70 86 100

GFSNIL_prec_cloud_024.txt.gz
Cloud_Cover
24 5 5 71 77 100 100 99 98 5 5 48 59 27 33 51 8 5 5 52 100 99
5 56 72 92 80 84 90 97 5 5 12 88 50 18 44 10 10 40 33 79 94 100
54 53 100 100 86 98 97 43 12 27 100 100 100 100 100 100 13 33 10 64 100 100
64 97 100 100 98 100 44 5 83 100 100 100 100 100 64 17 5 14 17 79 58 100
93 100 100 99 99 19 5 71 76 90 99 100 63 55 5 52 100 100 98 98 83 86
98 100 100 79 76 56 7 9 89 99 33 5 5 98 11 5 100 33 75 28 5 10
100 99 74 80 52 69 90 44 48 5 23 66 79 92 86 64 89 97 8 21 15 30
100 83 98 77 98 99 96 68 89 86 100 100 83 100 100 93 100 93 15 63 14 57
100 100 100 100 100 93 99 100 83 95 99 95 94 100 100 100 100 95 4 5 36 5
100 83 100 100 85 100 100 100 100 94 100 100 100 100 100 100 100 6 5 5 5 5
100 100 100 100 100 100 100 100 100 100 100 100 100 100 100 100 100 94 5 5 5 5
100 100 100 100 100 100 100 100 100 100 100 100 100 100 100 42 22 5 8 5 5 52
100 100 100 100 100 100 100 100 100 100 100 100 91 100 100 13 5 54 5 5 5 5
100 100 100 100 100 100 100 100 100 100 100 100 100 100 47 4 5 5 5 5 5 93

GFSNIL_prec_cloud_027.txt.gz
Cloud_Cover
5 5 90 100 100 95 100 8 64 90 100 84 5 5 5 88 27 56 99 18 72 5
77 100 100 100 100 100 83 56 86 64 94 30 5 5 30 46 46 4 5 5 77 99
99 67 87 93 91 84 100 98 92 67 26 5 23 25 83 98 69 5 36 20 69 100
8 8 88 100 88 100 84 100 100 99 96 89 99 58 83 62 64 80 99 100 99 100
5 88 100 100 100 100 100 74 69 64 99 99 55 72 100 100 100 100 100 100 100 100
97 100 100 100 87 80 95 66 100 77 83 100 100 100 98 74 96 93 100 100 100 100
100 100 100 100 85 100 71 95 97 77 100 100 100 100 100 97 100 100 100 100 100 100
100 99 81 100 99 73 91 75 34 88 96 100 100 100 100 100 100 100 99 100 100 100
100 72 96 99 98 100 100 100 100 100 100 100 100 100 100 100 100 100 100 96 84 100
100 100 100 100 100 100 100 100 100 99 77 93 100 100 100 100 100 100 100 59 3 1
97 83 99 100 100 100 100 100 100 100 100 100 100 100 100 100 100 99 81 5 5 5
67 100 100 100 100 100 100 100 100 100 100 100 100 100 100 99 9 5 6 16 12 5
100 100 100 100 100 100 100 100 100 100 100 100 97 100 94 96 56 72 24 1 5 5
100 100 100 100 100 100 100 100 100 100 100 100 100 100 100 76 12 5 5 5 5 5

GFSNIL_prec_cloud_030.txt.gz
Cloud_Cover
94 100 98 100 97 100 100 100 100 100 100 67 80 76 43 5 5 87 18 5 76 94
100 100 83 100 100 100 100 100 100 100 100 70 92 46 65 7 56 61 5 19 90 100
100 100 100 99 100 100 100 100 100 100 56 68 100 57 40 87 88 77 28 100 100 83
100 100 100 100 100 96 100 99 100 100 79 99 70 81 80 100 76 100 82 99 99 90
74 72 78 98 94 82 88 97 62 67 18 76 87 99 53 38 67 90 100 100 94 92
44 90 42 54 60 40 24 15 19 31 5 41 99 100 98 78 41 73 94 98 100 100
100 97 99 15 57 6 5 5 50 97 80 99 100 100 97 94 98 100 92 100 100 100
100 100 93 100 100 61 26 87 79 79 100 96 85 74 95 89 71 100 100 100 100 72
100 100 100 100 100 98 97 100 100 100 96 93 84 87 98 100 100 100 100 98 5 5
100 100 100 100 100 100 100 100 100 91 100 99 100 100 100 100 100 93 5 5 5 5
74 18 78 100 100 100 100 100 100 100 100 100 100 100 100 100 83 70 85 82 21 5
100 100 100 100 100 100 100 100 100 100 100 100 100 59 62 80 46 40 5 62 7 0
100 100 100 100 100 100 100 99 99 74 26 5 5 5 10 70 81 6 5 5 2 3
100 100 100 100 100 100 62 10 4 0 0 3 5 7 82 90 5 42 8 5 5 5

GFSNIL_prec_cloud_033.txt.gz
Cloud_Cover
0 0 4 25 32 99 100 100 87 100 100 100 100 96 95 99 49 100 100 19 47 57
0 34 66 95 100 100 100 100 100 100 100 100 100 97 96 99 56 86 79 75 13 45
5 7 99 100 83 93 100 100 100 100 100 100 100 72 69 100 73 96 100 91 44 70
10 74 37 64 100 100 100 100 100 100 100 100 91 86 100 96 25 69 94 27 5 5
27 94 98 100 100 100 100 98 82 97 100 100 96 100 100 100 91 5 5 5 92 99
14 58 95 100 100 100 50 69 99 100 89 100 100 100 87 25 93 73 10 90 100 100
79 97 99 100 100 100 100 100 100 100 100 100 100 90 99 69 82 63 94 91 74 15
87 40 26 27 45 100 100 100 100 100 100 100 100 100 86 96 100 100 78 6 5 1
65 100 100 100 100 100 100 100 100 100 100 100 100 100 84 95 24 5 5 5 27 5
100 100 100 100 100 100 100 100 100 100 100 100 100 100 90 5 5 5 5 5 5 5
99 100 100 100 100 100 100 92 100 100 100 100 96 9 5 5 5 16 5 63 5 5
100 100 100 100 100 100 100 100 96 100 100 87 60 7 3 5 5 89 74 73 5 5
100 100 100 100 100 100 100 100 100 100 100 84 6 45 3 5 92 94 91 74 50 5
100 100 100 100 100 100 100 100 100 86 53 72 99 12 4 5 74 99 100 99 50 14

GFSNIL_prec_cloud_036.txt.gz
Cloud_Cover
100 100 100 89 35 100 100 100 91 61 84 100 100 100 100 100 100 45 18 5 5 5
94 99 53 68 99 91 67 73 100 40 90 100 100 99 72 48 52 76 41 5 9 26
42 72 25 76 98 99 100 99 93 100 64 63 99 91 96 32 74 79 31 82 100 73
15 15 94 92 89 81 40 43 100 100 100 100 71 72 94 80 95 28 75 100 96 90
56 33 51 80 42 88 92 96 100 100 90 100 100 98 98 100 96 6 64 70 100 86
83 37 69 90 17 79 28 100 100 10 69 100 76 100 100 92 100 100 100 95 5 5
58 44 100 91 92 99 100 100 82 86 100 100 100 100 100 100 100 91 76 62 6 5
5 93 84 80 91 80 100 58 98 100 100 100 100 100 100 98 100 50 97 82 39 5
100 100 96 100 87 99 31 39 100 100 100 100 100 100 100 96 86 100 100 37 5 5
97 99 100 100 100 96 98 100 100 100 100 100 100 100 100 99 100 100 94 6 84 8
62 98 100 100 100 100 100 100 100 100 100 100 100 100 100 100 100 100 28 5 99 63
72 88 100 100 100 100 100 100 100 100 100 100 100 100 100 100 100 100 70 89 100 100
91 100 100 99 100 100 100 100 100 100 100 100 100 100 100 100 100 65 6 70 100 100
95 100 100 100 97 83 85 92 100 100 100 100 100 100 100 100 87 35 5 6 53 91

GFSNIL_prec_cloud_039.txt.gz
Cloud_Cover
100 100 100 100 100 100 100 56 56 96 46 97 89 100 100 46 38 37 5 5 5 5
100 100 100 100 100 100 100 93 100 100 100 100 100 100 96 94 48 9 19 20 50 18
100 100 100 100 100 100 94 100 100 97 100 100 100 91 35 10 36 34 72 99 100 93
79 100 100 100 100 100 96 99 94 95 98 100 100 98 15 25 98 100 98 100 100 100
100 100 91 100 100 100 100 100 100 100 100 100 100 100 84 87 100 100 90 94 79 81
93 97 100 100 100 99 99 58 66 51 89 100 100 16 82 100 95 92 70 65 82 89
52 58 31 41 59 51 57 98 100 100 100 100 99 100 100 100 100 100 100 100 100 100
4 5 46 86 32 90 100 100 100 100 96 100 100 100 100 100 100 100 100 100 100 100
83 93 98 100 100 100 100 100 100 100 100 100 97 100 100 100 99 100 100 100 100 100
52 96 100 100 100 100 100 100 100 100 100 100 100 100 100 99 99 100 100 100 98 100
14 77 100 84 90 100 99 99 99 84 100 100 100 96 97 96 81 57 87 99 99 17
56 68 55 42 89 100 100 43 91 100 100 87 100 81 73 61 30 84 98 76 72 12
72 44 100 99 99 100 100 97 93 46 85 65 81 11 29 48 70 88 87 74 40 14
94 100 97 52 14 5 13 19 21 38 68 36 5 55 39 69 38 60 52 7 5 5

GFSNIL_prec_cloud_042.txt.gz
Cloud_Cover
100 100 100 100 100 100 100 100 100 100 100 100 100 100 100 100 100 100 70 5 6 5
100 100 100 100 100 100 100 100 100 100 100 100 100 100 100 95 100 100 24 6 10 86
100 100 100 100 100 100 100 100 100 100 100 100 99 100 99 100 100 100 100 100 93 80
100 100 100 100 100 100 100 100 100 100 99 95 100 91 100 100 100 99 96 100 96 98
100 100 100 100 100 100 100 100 100 100 74 99 100 98 95 100 100 100 100 100 61 100
98 100 100 100 100 100 100 100 100 100 100 100 100 100 100 100 100 100 100 100 100 100
51 97 100 100 100 100 100 100 100 100 100 100 100 100 100 100 100 100 100 100 100 100
46 73 63 50 15 64 86 71 95 94 100 100 100 100 100 96 84 100 100 100 100 100
5 5 5 24 50 55 80 80 100 100 100 100 94 87 98 93 100 100 100 100 100 100
5 5 19 68 91 100 100 100 100 100 88 100 99 100 100 100 100 100 100 97 98 100
5 5 5 5 22 71 94 94 100 97 100 100 93 93 100 70 85 79 90 37 19 85
18 36 51 73 96 83 99 100 99 100 100 100 100 74 65 48 42 24 23 5 23 48
93 100 100 100 100 100 100 96 32 30 11 10 41 20 5 6 5 5 5 14 39 5
100 100 98 96 95 84 20 6 5 5 6 7 5 20 24 9 5 5 11 50 22 80

GFSNIL_prec_cloud_045.txt.gz
Cloud_Cover
100 100 100 100 100 100 100 100 100 100 100 100 100 100 100 100 100 100 100 99 62 100
100 100 100 100 100 100 100 100 100 100 100 100 100 100 100 100 100 100 100 92 100 100
100 100 100 95 100 100 100 100 100 100 100 100 100 100 100 100 100 86 99 100 100 100
28 84 100 100 100 100 100 100 100 100 100 100 100 100 100 100 100 99 100 97 100 100
50 87 100 100 100 100 100 100 100 100 100 100 100 100 100 100 100 100 100 100 100 100
95 100 100 100 100 100 100 100 100 100 100 100 100 100 100 100 100 100 100 100 100 99
100 100 100 100 100 100 100 100 100 100 100 100 100 100 100 100 100 89 97 100 100 100
100 100 100 100 100 100 91 93 98 100 100 100 100 100 100 100 61 77 100 100 100 100
17 7 12 9 6 16 38 46 77 100 100 100 100 100 99 43 88 100 100 100 78 82
1 1 2 2 3 5 14 45 100 97 91 90 100 76 59 100 100 100 100 78 16 5
5 5 5 8 6 50 81 99 100 90 98 100 100 100 89 76 76 49 7 5 5 16
79 94 98 100 91 72 98 96 100 100 100 100 56 21 5 24 5 5 23 99 99 74
15 44 72 88 99 100 100 94 56 64 88 35 5 5 5 5 9 13 38 52 50 11
87 98 100 100 78 46 49 87 90 54 10 5 6 8 7 6 8 73 88 98 16 19

GFSNIL_prec_cloud_048.txt.gz
Cloud_Cover
74 100 100 96 82 100 87 100 100 100 100 100 100 100 100 100 100 100 100 100 100 100
100 100 100 100 62 93 100 100 100 100 100 100 100 100 100 100 100 100 100 100 100 98
100 100 89 98 100 100 80 79 100 100 100 100 100 100 100 100 100 100 100 100 100 100
98 41 28 93 100 100 100 100 100 100 100 100 100 100 100 100 100 100 100 100 99 100
76 64 34 58 82 100 100 100 100 100 100 100 100 100 100 100 100 100 100 100 100 99
97 100 100 100 100 100 100 100 100 100 100 100 100 100 100 100 100 100 100 100 98 79
100 100 100 100 100 100 100 100 100 100 100 100 100 100 100 100 100 100 100 100 80 100
81 100 100 100 100 100 100 100 100 100 100 100 100 100 100 100 100 100 90 54 97 100
100 100 100 100 100 100 51 30 27 95 65 58 28 99 100 100 100 100 100 100 100 71
57 23 18 23 13 24 5 5 5 27 60 59 79 73 34 72 100 100 100 94 12 5
5 9 23 26 23 21 32 37 48 18 29 88 100 89 100 100 68 44 38 7 5 5
5 5 5 5 9 5 10 70 92 99 37 95 100 55 10 24 88 33 5 5 6 26
9 42 26 82 100 70 93 67 56 100 100 18 5 68 100 94 6 44 93 100 100 53
100 96 84 61 46 57 87 99 100 96 57 33 100 98 72 46 26 83 100 65 44 100

GFSNIL_prec_cloud_051.txt.gz
Cloud_Cover
100 95 22 40 40 11 19 90 100 100 100 100 100 100 100 100 100 100 100 100 100 100
100 21 65 13 43 98 98 100 100 100 100 100 100 100 100 100 100 100 100 100 100 100
81 49 34 45 90 83 51 89 100 100 100 100 100 100 100 100 100 100 100 100 100 100
62 100 100 100 100 100 100 99 28 43 81 99 100 100 100 100 100 100 100 100 100 100
100 100 100 100 100 100 100 100 100 88 77 100 100 100 100 100 100 100 100 100 100 100
100 100 100 100 100 100 100 98 100 100 100 100 100 100 98 100 100 100 100 100 100 100
100 78 89 94 100 100 100 100 100 100 100 100 100 100 100 100 100 100 100 100 100 100
69 67 70 100 100 100 100 100 100 100 100 100 100 100 100 100 100 100 89 100 100 73
44 100 89 100 100 100 100 100 100 100 100 100 100 100 100 100 98 100 100 58 76 100
73 100 100 100 100 100 100 100 94 79 53 77 87 63 87 26 43 33 92 92 67 22
60 57 100 100 100 64 5 5 5 5 6 13 58 44 9 61 79 38 15 86 5 41
9 7 35 36 8 3 5 5 6 40 43 95 100 100 57 12 14 63 64 100 58 5
90 2 2 4 5 5 8 19 8 48 30 7 9 5 6 5 45 22 52 12 5 5
5 5 5 7 13 5 37 5 6 5 24 34 33 67 32 5 21 30 87 81 84 64

GFSNIL_prec_cloud_054.txt.gz
Cloud_Cover
92 99 100 92 100 100 98 99 100 100 100 92 100 100 100 100 100 100 100 100 100 100
100 94 99 63 99 100 100 100 97 92 92 100 100 100 100 100 100 100 100 100 100 100
100 100 100 100 100 100 100 100 100 100 98 94 95 97 100 100 100 100 100 100 100 100
52 100 100 100 100 100 100 100 100 100 100 40 41 66 79 100 100 100 100 100 100 100
100 100 100 100 100 100 100 100 100 100 88 65 100 100 100 100 100 100 100 100 100 98
100 98 100 100 100 100 100 100 100 100 100 100 100 100 100 100 100 100 84 84 100 100
89 85 100 100 100 100 100 100 100 100 100 100 100 100 100 100 100 100 88 99 100 100
100 100 100 100 100 100 100 100 100 100 100 100 100 100 100 100 100 76 100 100 100 100
100 100 100 100 100 100 100 100 100 100 100 100 100 100 100 91 100 100 100 100 100 100
100 100 100 100 100 100 100 100 100 100 100 100 100 100 100 100 100 100 100 100 96 100
100 100 100 100 81 98 100 100 100 100 100 100 100 100 98 95 65 34 6 25 21 38
100 100 100 100 100 100 99 100 100 80 29 10 5 5 6 8 36 5 8 14 9 14
99 99 45 73 64 21 5 4 5 5 53 46 37 100 100 98 47 8 5 7 7 19
100 34 24 26 5 5 5 5 5 5 74 98 98 86 45 48 94 36 92 75 50 53

GFSNIL_prec_cloud_060.txt.gz
Cloud_Cover
100 100 100 100 100 100 100 100 100 100 100 100 89 56 81 100 100 88 77 98 65 100
5 5 5 5 6 5 47 5 5 38 8 9 30 16 45 98 100 83 64 55 46 72
95 12 5 28 70 100 52 13 44 40 62 69 48 44 92 78 93 79 96 76 84 100
100 100 99 100 89 100 96 96 86 88 99 92 100 100 100 100 100 100 98 100 88 96
80 92 100 100 62 79 99 96 100 67 100 100 100 100 100 100 100 100 100 100 100 100
100 100 96 70 80 48 81 89 99 100 100 100 100 100 100 100 100 100 100 100 100 100
75 74 91 91 56 97 87 100 100 100 100 100 100 100 100 100 100 100 100 100 100 100
0 2 18 70 50 100 100 100 100 100 100 100 100 100 100 100 100 100 100 100 100 100
0 0 0 0 14 100 100 100 100 100 100 100 100 98 92 100 100 100 100 100 100 100
0 3 2 12 52 99 98 100 100 100 100 100 100 100 100 100 100 100 100 100 100 100
5 5 33 91 96 100 100 100 100 100 100 100 100 100 100 100 100 100 100 100 100 100
26 77 100 100 100 100 100 100 100 100 100 100 100 100 100 100 100 100 100 100 100 100
100 100 100 100 100 100 100 100 100 100 100 100 100 100 100 100 100 100 100 100 100 100
100 100 100 100 100 100 100 100 100 100 100 100 100 100 100 100 100 100 100 100 100 100

GFSNIL_prec_cloud_063.txt.gz
Cloud_Cover
84 98 100 100 100 100 100 100 100 100 100 100 100 100 100 100 100 100 100 100 100 100
5 30 92 97 99 95 98 100 100 100 100 100 100 99 95 77 89 93 80 98 100 100
1 4 5 5 5 5 5 5 15 78 98 85 77 60 48 70 99 100 95 100 100 100
41 81 83 74 95 30 50 53 79 24 14 67 100 100 87 56 100 100 100 100 100 100
40 48 100 100 100 100 92 96 56 68 87 100 76 100 100 100 100 100 100 100 100 100
10 5 42 9 74 80 76 8 73 99 88 90 68 100 100 100 100 100 100 100 100 100
61 99 85 40 60 100 77 30 53 96 93 77 100 100 100 100 100 100 100 100 100 100
0 0 4 28 68 24 58 28 88 98 100 41 48 68 99 100 100 100 100 100 100 100
0 0 0 0 0 0 0 4 2 37 100 100 100 100 100 100 100 100 100 100 100 100
5 1 0 0 0 0 1 12 19 90 100 100 100 100 100 100 100 100 100 100 100 100
5 5 2 6 5 28 73 82 98 100 100 100 100 100 100 100 100 100 100 100 100 100
62 97 2 46 90 97 99 100 100 100 100 100 100 100 100 100 100 100 100 100 100 100
45 100 100 100 100 100 100 100 100 100 100 100 100 100 100 100 100 100 100 100 100 100
100 82 100 100 100 100 100 100 100 100 100 100 100 100 100 100 100 100 100 100 100 100

GFSNIL_prec_cloud_066.txt.gz
Cloud_Cover
69 100 100 100 100 100 100 100 100 100 100 100 100 100 100 100 100 100 100 100 100 100
100 100 100 100 100 100 100 100 100 100 100 100 100 100 100 100 100 100 100 97 97 93
94 59 31 86 97 100 100 100 100 100 100 100 100 100 100 100 100 66 22 60 100 100
100 94 25 16 27 5 12 22 35 25 78 99 60 69 89 20 71 85 100 99 97 100
21 20 18 55 14 45 65 99 50 94 98 100 100 69 89 97 60 40 98 100 100 100
0 4 40 6 5 5 5 13 52 63 17 6 6 56 67 39 90 90 95 100 100 100
0 0 0 2 2 5 25 10 78 98 6 5 5 6 31 48 96 100 100 100 100 100
0 0 0 0 0 0 0 5 5 55 18 13 5 86 99 100 98 65 60 80 100 100
1 0 0 0 0 0 0 0 0 0 3 9 21 50 89 100 98 70 99 100 100 100
93 48 0 0 0 4 1 0 3 0 0 0 0 75 100 100 100 100 100 100 100 100
56 87 92 9 33 4 3 2 20 41 63 78 79 100 100 100 100 100 100 100 100 100
99 14 62 100 100 100 36 89 100 100 100 100 99 100 100 100 100 100 100 100 100 100
96 83 98 100 100 100 100 100 100 100 100 100 100 100 100 100 100 100 100 100 100 100
100 100 100 100 100 100 100 100 100 100 100 100 100 100 100 100 100 100 100 100 100 100

GFSNIL_prec_cloud_069.txt.gz
Cloud_Cover
97 95 100 99 98 90 100 100 100 100 100 100 100 100 100 100 100 100 100 100 100 100
100 95 98 100 97 94 89 100 100 100 100 100 94 66 99 100 100 100 100 100 100 100
75 61 100 87 72 100 100 100 100 100 100 100 100 100 100 100 100 100 100 100 100 100
66 100 100 98 24 6 18 90 100 100 100 100 100 100 100 100 100 100 100 100 100 100
26 55 44 7 36 81 34 5 9 18 27 97 99 63 99 96 99 100 96 100 100 100
0 0 0 0 12 14 1 1 48 96 58 12 50 35 55 69 83 85 92 100 62 75
0 0 0 0 0 0 0 0 4 5 5 6 40 44 54 63 62 23 5 5 43 86
0 0 0 0 0 0 0 0 0 1 0 4 5 5 5 5 5 5 14 100 90 59
0 0 4 6 98 7 0 0 0 0 0 0 0 5 5 9 78 74 83 86 32 99
9 0 1 2 6 94 100 86 4 19 3 2 2 5 5 2 3 42 37 20 87 98
100 100 55 45 100 80 14 65 100 100 100 70 50 22 100 100 26 52 35 100 100 100
98 86 100 100 100 100 100 99 97 99 100 100 100 92 100 100 98 99 100 100 100 100
100 94 100 90 84 99 100 100 100 100 100 100 100 100 100 100 100 100 100 100 100 100
100 100 88 89 100 100 69 76 100 100 100 100 100 100 100 100 100 100 100 100 100 100

GFSNIL_prec_cloud_072.txt.gz
Cloud_Cover
100 100 99 100 100 100 100 100 100 100 100 100 100 100 100 100 100 100 100 100 100 100
100 100 100 78 94 100 100 75 100 100 100 100 100 100 100 100 100 100 100 100 100 100
100 100 98 50 79 100 100 100 100 100 100 100 100 100 100 100 96 100 100 100 100 100
100 100 100 19 26 38 24 22 80 100 100 100 100 100 100 100 100 100 100 100 100 100
73 100 100 68 34 46 8 37 7 1 6 68 100 100 100 100 100 100 100 100 100 100
0 0 17 0 0 19 13 0 0 1 4 5 3 4 47 88 86 92 73 64 40 75
0 0 0 0 0 1 2 28 1 0 0 1 5 5 5 5 13 45 14 66 56 78
21 7 1 0 0 0 0 9 76 4 1 0 0 0 1 4 5 5 5 47 5 5
22 100 54 12 3 0 0 26 100 100 96 18 4 0 5 5 4 5 5 5 47 25
4 4 55 93 63 13 21 6 19 21 5 21 100 100 100 100 88 10 13 48 93 88
46 58 59 6 49 100 100 88 100 99 79 46 73 61 100 100 100 100 97 73 93 87
89 63 56 78 100 100 66 81 45 67 92 100 100 100 100 100 100 100 100 100 100 100
5 5 22 11 79 76 100 100 84 100 100 100 100 100 100 100 100 100 100 100 100 100
50 45 91 40 42 87 29 58 99 100 100 100 100 100 100 100 100 100 100 100 100 100

GFSNIL_prec_cloud_078.txt.gz
Cloud_Cover
59 41 34 94 65 100 100 100 100 100 100 100 100 100 99 100 100 100 100 100 86 94
100 100 100 100 84 49 52 54 100 100 100 100 100 100 100 99 96 91 97 99 100 100
100 100 100 100 100 100 99 78 79 100 100 100 100 100 100 100 99 100 100 100 100 100
100 100 100 66 67 100 100 100 100 100 100 100 100 100 100 100 100 100 100 98 100 100
100 100 100 100 100 53 14 8 22 98 100 100 100 100 100 100 100 91 99 100 100 95
5 67 98 100 100 100 98 58 14 20 0 0 5 47 31 64 94 83 35 9 16 81
22 5 4 61 98 100 100 100 100 42 32 1 9 1 14 25 15 16 10 5 5 5
0 1 0 3 6 89 98 100 100 100 89 28 0 0 0 1 4 1 1 2 1 4
27 93 26 0 0 0 0 19 99 100 100 36 19 17 0 0 4 1 0 0 0 0
79 49 54 70 72 37 29 20 15 8 7 19 6 5 5 17 58 13 4 12 10 5
99 100 100 99 76 98 94 92 98 97 42 16 9 6 56 83 29 80 86 100 85 84
100 100 100 100 100 100 98 98 100 100 100 80 100 99 96 93 100 100 100 100 100 100
100 100 100 100 100 100 100 100 100 100 100 100 100 100 100 100 100 100 100 89 100 100
100 100 100 100 100 100 100 100 100 100 100 100 100 100 100 100 100 100 100 100 100 100

GFSNIL_prec_cloud_081.txt.gz
Cloud_Cover
100 100 100 100 100 100 100 100 100 100 100 100 100 100 100 100 100 100 100 100 100 100
100 100 100 100 100 100 100 100 100 100 100 100 100 100 100 100 100 100 100 100 100 100
87 60 99 63 79 100 100 100 100 100 100 100 100 100 100 100 100 100 100 100 100 100
27 40 96 100 48 100 100 100 100 100 100 100 100 100 100 100 100 100 100 100 100 100
100 63 50 77 3 0 7 78 100 100 100 100 100 100 100 100 100 100 100 100 100 100
100 100 52 18 5 5 0 0 0 4 8 16 50 68 47 35 87 98 98 100 100 99
17 20 70 92 100 100 100 89 15 5 0 0 0 0 0 2 4 5 5 17 82 98
7 5 2 5 10 30 68 93 100 100 98 76 32 4 14 17 0 1 22 33 33 28
72 67 58 5 44 21 1 1 5 68 99 100 100 100 81 68 81 75 4 4 3 16
100 91 98 38 37 89 72 59 72 42 20 16 27 53 89 98 71 35 39 5 4 5
100 100 100 100 100 100 100 100 100 100 100 100 100 100 100 94 100 89 48 30 20 54
100 100 100 100 100 100 100 100 100 100 100 100 100 100 100 100 100 100 100 100 100 100
100 100 100 100 100 100 100 100 100 100 100 100 100 100 100 100 100 100 100 100 100 100
100 100 100 100 100 100 100 100 100 100 100 100 100 100 100 100 100 100 100 100 100 100

GFSNIL_prec_cloud_084.txt.gz
Cloud_Cover
100 100 100 100 100 100 100 100 100 100 100 100 100 100 100 100 100 100 100 100 100 100
100 100 100 100 100 100 100 100 100 100 100 100 100 100 100 100 100 100 100 100 100 100
100 100 100 100 100 100 100 100 100 100 100 100 100 100 100 100 100 100 100 100 100 100
100 100 93 100 99 100 100 100 100 100 100 100 100 100 100 100 100 100 100 100 100 100
100 96 100 100 100 100 100 100 100 100 100 100 100 100 100 100 100 100 100 100 100 100
100 100 100 100 100 76 4 3 52 97 98 99 100 100 100 100 100 100 100 100 100 99
16 53 77 99 86 98 98 48 31 22 9 6 48 98 100 100 100 100 96 95 97 94
23 22 5 5 5 6 17 53 62 30 40 39 45 37 49 51 68 71 55 37 40 22
77 40 21 9 0 0 4 5 13 1 44 75 100 100 100 100 100 73 76 62 65 38
100 100 100 100 100 100 100 100 82 95 98 100 100 100 100 97 99 100 100 100 100 100
100 100 100 100 100 100 100 100 100 100 100 100 100 100 100 100 100 100 100 100 100 100
100 100 100 100 100 100 100 100 100 100 100 100 100 100 100 98 100 100 100 100 100 100
100 100 100 100 100 100 100 100 100 100 100 100 100 100 100 100 100 100 100 100 100 100
100 100 100 100 100 100 100 100 100 100 100 100 100 100 100 100 100 100 100 100 100 100

GFSNIL_prec_cloud_087.txt.gz
Cloud_Cover
100 100 100 100 100 100 100 100 100 100 100 100 100 100 100 100 100 100 100 100 100 100
100 100 100 100 100 100 100 100 100 100 100 100 100 100 100 100 100 100 100 100 100 100
100 100 100 100 100 100 100 100 100 100 100 100 100 100 100 100 100 100 100 100 100 100
100 100 100 100 100 100 100 100 100 100 100 100 100 100 100 100 100 100 100 100 100 100
100 100 100 100 100 100 100 100 100 100 100 100 100 100 100 100 100 100 100 100 100 100
100 100 100 100 100 100 100 100 100 100 100 100 100 100 100 100 100 100 100 100 100 100
100 100 100 100 100 100 100 100 100 100 100 100 100 100 100 100 100 100 100 100 100 100
99 55 62 73 69 94 100 100 100 74 43 44 62 59 79 98 100 100 100 100 100 100
87 75 68 70 54 52 48 60 76 93 71 100 100 100 100 100 100 100 100 100 97 100
100 100 100 100 100 100 100 100 100 100 100 100 100 100 98 93 80 96 100 100 100 100
100 100 100 100 100 100 100 100 100 100 100 100 100 100 100 94 100 100 100 100 100 100
100 100 100 100 100 100 100 100 100 100 100 100 100 100 100 100 100 100 100 100 100 100
100 100 100 100 100 100 100 100 100 100 100 100 100 100 100 100 100 100 100 100 100 100
100 100 100 100 100 100 100 100 100 100 100 100 100 100 100 100 100 100 100 100 100 100

GFSNIL_prec_cloud_090.txt.gz
Cloud_Cover
99 100 100 100 100 100 100 100 100 100 100 100 100 100 100 100 100 100 100 100 100 100
91 100 100 100 100 100 100 100 100 100 100 100 100 100 100 100 100 100 100 100 100 100
100 100 100 100 100 100 100 100 100 100 100 100 100 100 100 100 100 100 100 100 100 100
62 100 100 100 100 100 100 100 100 100 100 100 100 100 100 100 100 100 100 100 100 100
50 100 100 100 100 100 100 100 100 100 100 100 100 100 100 100 100 100 100 100 100 100
86 98 100 100 100 100 100 100 100 100 100 100 100 100 100 100 100 100 100 100 100 100
94 70 87 100 100 100 100 100 100 100 100 100 100 100 100 100 100 100 100 100 100 100
99 100 100 100 100 100 100 100 100 100 100 100 100 100 100 100 100 100 100 100 100 100
100 100 100 100 100 100 100 100 100 100 100 100 100 100 100 100 100 100 100 100 100 100
100 100 100 100 100 100 96 93 100 100 100 100 100 100 100 100 100 100 100 100 100 100
100 100 100 100 100 100 100 100 100 100 100 100 100 99 99 95 100 100 100 100 100 100
100 100 100 100 100 100 100 100 100 100 100 100 100 100 100 100 100 100 100 100 100 100
100 100 100 100 100 100 100 100 100 100 100 100 100 100 100 100 100 100 100 100 100 100
100 100 100 100 100 100 100 100 100 100 100 100 100 100 100 100 100 100 100 100 100 100

GFSNIL_prec_cloud_093.txt.gz
Cloud_Cover
37 71 100 86 83 100 100 100 100 100 100 100 100 100 100 100 100 100 100 100 100 100
75 100 99 83 100 97 100 100 100 100 100 100 100 100 100 100 100 100 100 100 100 100
100 96 75 99 100 100 100 100 100 100 100 100 100 100 100 100 100 100 100 100 100 100
100 85 64 86 100 100 100 100 100 100 100 100 100 100 100 100 100 100 100 100 100 100
100 78 95 100 100 100 100 100 100 100 100 100 100 100 100 100 100 100 100 100 100 100
100 82 100 100 100 100 100 100 100 100 100 100 100 100 100 100 100 100 100 100 100 99
100 75 80 100 100 100 100 100 100 100 100 100 100 100 100 100 100 100 100 100 100 91
100 34 100 100 100 100 100 100 100 100 100 100 100 100 100 100 100 100 100 100 100 100
100 88 100 100 100 100 100 100 100 100 100 100 100 100 100 100 100 100 100 100 100 100
100 100 100 100 100 100 100 100 100 100 100 100 100 100 100 100 100 100 100 100 100 100
100 100 100 100 100 100 100 100 100 100 100 100 100 100 100 100 100 100 100 100 100 100
100 100 100 100 100 100 100 100 100 100 100 100 100 100 100 100 100 100 100 100 100 100
100 100 100 100 100 100 100 100 100 100 100 100 100 100 100 100 100 100 100 100 100 100
100 100 100 100 100 100 100 100 100 100 100 100 100 100 100 100 100 100 100 100 100 100

GFSNIL_prec_cloud_096.txt.gz
Cloud_Cover
100 100 100 49 3 71 100 100 100 100 100 100 100 100 100 100 100 100 100 100 100 100
100 100 91 17 84 80 100 100 100 100 100 100 100 100 100 100 100 100 100 100 100 100
100 100 100 100 58 100 100 100 100 100 100 100 100 100 100 100 100 100 100 100 100 100
100 100 100 60 97 85 100 80 100 100 100 100 100 100 100 100 100 100 100 100 100 100
100 100 100 100 100 98 100 100 100 100 100 100 100 100 100 100 100 100 100 100 100 100
100 100 100 84 100 100 100 100 100 100 100 100 100 100 100 100 100 100 100 100 100 100
100 100 100 100 73 100 100 100 100 100 100 100 100 100 100 100 100 100 100 100 100 100
100 100 58 82 81 100 100 100 100 100 100 100 100 100 100 100 100 100 100 100 100 100
100 100 100 100 100 100 100 100 100 100 100 100 100 100 100 100 100 100 100 100 100 100
100 100 100 100 100 100 100 100 100 100 100 100 100 100 100 100 100 100 100 100 100 100
100 100 100 100 100 100 100 100 100 100 100 100 100 100 100 100 100 100 100 100 100 100
100 100 100 100 100 100 100 100 100 100 100 100 100 100 100 100 100 100 100 100 100 100
100 100 100 100 100 100 100 100 100 100 100 100 100 100 100 100 100 100 100 100 100 100
100 100 100 100 100 100 100 100 100 100 100 100 100 100 100 100 100 100 100 100 100 100

GFSNIL_prec_cloud_099.txt.gz
Cloud_Cover
28 5 28 100 17 32 76 100 100 73 100 89 100 100 100 100 100 100 100 100 100 100
53 8 100 100 97 81 44 55 51 98 100 100 100 100 100 100 100 100 100 100 100 100
9 100 100 100 100 60 3 11 91 100 100 100 100 100 100 100 100 100 100 100 100 100
100 100 100 100 99 24 52 100 100 83 100 100 100 100 100 100 100 100 100 100 100 100
100 100 100 100 100 74 97 100 58 100 100 100 100 100 100 100 100 100 100 100 100 100
100 100 100 100 83 100 100 100 100 100 100 100 100 100 100 100 100 100 100 100 100 100
100 100 100 100 98 100 100 100 100 100 100 100 100 100 100 100 100 100 100 100 100 100
100 100 100 86 44 100 100 100 100 100 100 100 100 100 100 100 100 100 100 100 100 100
100 100 100 100 100 100 100 100 100 100 100 100 100 100 100 100 100 100 100 100 100 100
100 100 100 100 100 100 100 100 100 100 100 100 100 100 100 100 100 100 100 100 100 100
100 100 100 100 100 100 100 100 100 100 100 100 100 100 100 100 100 100 100 100 100 100
100 100 100 100 100 100 100 100 100 100 100 100 100 100 100 100 100 100 100 100 100 100
100 100 100 100 100 100 100 100 100 100 100 100 100 100 100 100 100 100 100 100 100 100
100 100 100 100 100 100 100 100 100 100 100 100 100 100 100 100 100 100 100 100 100 100

GFSNIL_prec_cloud_102.txt.gz
Cloud_Cover
96 100 100 100 82 30 93 49 34 92 99 100 100 100 100 100 100 100 100 100 98 100
100 100 100 100 100 95 100 42 34 82 88 100 100 100 100 100 100 100 100 100 100 100
98 100 100 100 98 100 100 100 99 100 100 100 100 88 100 100 100 100 100 100 100 100
100 100 100 100 100 100 100 100 100 100 100 100 100 100 100 100 100 100 100 100 100 100
100 100 100 100 100 100 100 100 100 98 100 100 100 100 100 100 100 100 100 100 100 100
100 100 100 100 100 100 100 100 97 100 100 100 98 85 100 100 100 100 100 100 100 100
100 100 100 100 100 100 96 97 100 96 100 100 100 100 100 100 100 100 100 100 100 100
100 100 100 100 100 100 99 100 90 98 100 100 100 100 100 100 100 100 100 100 100 100
100 100 100 100 100 100 100 100 100 100 100 100 100 100 100 100 100 100 100 100 100 100
100 100 100 100 100 100 100 100 100 100 100 100 100 100 100 100 100 100 100 100 100 100
100 100 100 100 100 100 100 100 100 100 100 100 100 100 100 100 100 100 100 100 100 100
100 100 100 100 100 100 100 100 100 100 100 100 100 100 100 100 100 100 100 100 100 100
100 100 100 100 100 100 100 100 100 100 100 100 100 100 100 100 100 100 100 100 100 100
100 100 100 100 100 100 100 100 100 100 100 100 100 100 100 100 100 100 100 100 100 100

GFSNIL_prec_cloud_105.txt.gz
Cloud_Cover
100 100 50 95 100 100 99 100 100 100 100 100 100 100 100 100 100 100 100 100 100 100
100 76 100 100 100 100 100 100 100 100 100 100 100 100 100 100 100 100 100 100 100 100
100 100 100 100 100 100 100 100 100 98 99 90 100 100 100 100 100 100 100 100 100 100
100 100 100 100 100 100 100 100 100 100 99 95 100 100 100 100 100 100 100 100 100 100
100 100 100 100 100 100 100 100 100 100 100 100 100 100 100 100 100 100 100 100 100 100
100 100 100 100 100 100 100 100 100 59 100 100 100 100 100 100 100 100 100 100 100 100
100 100 100 100 100 100 100 100 38 82 100 100 100 100 100 100 100 100 100 100 100 100
100 100 100 100 100 100 100 93 94 100 100 100 100 100 100 100 100 100 100 100 100 100
100 100 100 100 100 100 100 100 100 100 100 100 100 100 100 100 100 100 100 100 100 100
100 100 100 100 100 100 100 100 100 100 100 100 100 100 100 100 100 100 100 100 100 100
100 100 100 100 100 100 100 100 100 100 100 100 100 100 100 100 100 100 100 100 100 100
100 100 100 100 100 100 100 100 100 100 100 100 100 100 100 100 100 100 100 100 100 100
100 100 100 100 100 100 100 100 100 100 100 100 100 95 100 100 100 100 100 100 100 100
100 100 100 100 100 100 100 100 100 100 100 100 100 100 100 100 100 100 100 100 100 100

GFSNIL_prec_cloud_108.txt.gz
Cloud_Cover
100 100 100 100 97 100 100 100 100 100 100 100 100 100 100 100 100 100 100 100 100 100
100 100 79 100 100 100 100 100 100 91 100 100 100 100 100 100 100 100 100 100 100 100
100 100 99 100 100 100 100 100 100 100 100 100 100 100 100 100 100 100 100 100 100 100
100 100 100 100 100 100 100 100 100 100 100 100 100 100 100 100 100 100 100 100 100 97
100 100 100 100 100 100 100 100 100 100 100 100 100 100 100 100 100 100 100 100 100 100
100 100 100 100 100 100 100 100 100 100 100 100 100 100 100 100 100 100 100 100 100 100
100 100 100 100 100 100 100 100 100 100 100 100 100 100 100 100 100 100 100 100 99 99
100 100 100 100 100 100 100 100 100 100 100 100 100 100 100 100 96 94 98 71 92 97
100 100 100 100 100 100 100 100 100 100 100 100 100 100 100 100 100 100 100 100 100 100
100 100 100 100 100 100 100 100 100 100 100 100 100 100 100 100 100 100 99 100 100 100
100 100 100 100 100 100 100 100 100 100 100 100 100 100 100 100 100 100 100 100 100 100
100 100 100 100 100 100 100 100 100 100 100 100 100 100 100 100 100 100 100 100 100 100
100 100 100 100 100 100 100 100 100 100 100 100 100 100 100 100 100 100 100 100 100 100
100 100 100 100 100 100 100 100 100 100 100 100 100 100 100 100 100 100 100 100 100 100

GFSNIL_prec_cloud_111.txt.gz
Cloud_Cover
0 100 82 70 68 76 100 100 100 100 100 100 100 100 100 100 100 100 100 100 98 100
51 100 100 100 89 34 100 79 96 100 100 100 100 100 100 100 100 100 100 100 100 100
37 100 100 100 71 100 100 100 100 100 100 100 100 100 100 100 100 100 100 100 100 100
100 100 100 100 99 100 100 100 100 100 100 98 100 100 100 100 100 100 100 100 100 100
100 100 100 100 100 100 100 100 100 100 98 100 100 100 100 100 100 100 100 100 90 97
100 100 100 100 100 100 100 100 100 100 100 100 100 100 100 100 100 100 100 100 100 100
100 100 100 100 100 100 100 100 100 100 100 100 100 100 100 100 100 100 100 100 85 71
100 100 100 100 100 100 100 100 100 100 100 100 100 100 100 100 100 100 57 35 79 90
100 100 100 100 100 100 100 100 100 100 100 100 100 100 100 100 100 100 100 100 100 92
100 100 100 100 100 100 100 100 100 100 100 100 100 100 100 100 100 100 100 100 100 99
100 100 100 100 100 100 100 100 100 100 100 100 100 100 100 100 100 100 100 100 100 100
100 100 100 100 100 100 100 100 100 100 100 100 100 100 100 100 100 100 100 100 100 100
100 100 100 100 100 100 100 100 100 100 100 100 100 100 100 100 100 100 100 100 100 100
100 100 100 100 100 100 100 100 100 100 100 100 100 100 100 100 100 100 100 100 100 100

GFSNIL_prec_cloud_114.txt.gz
Cloud_Cover
86 12 4 2 10 100 35 100 100 100 100 100 100 100 100 100 100 100 100 100 100 96
82 42 0 8 15 8 48 98 100 100 100 100 100 100 100 100 100 100 100 100 100 98
100 31 100 96 33 55 81 100 100 100 100 100 100 100 100 100 100 100 100 100 100 100
100 46 97 51 100 100 100 34 100 100 100 100 100 100 100 100 100 100 100 100 100 100
100 100 66 99 100 100 45 100 100 100 100 100 100 100 100 100 100 100 100 100 100 100
100 100 100 100 100 100 100 100 100 100 100 100 100 100 100 100 100 100 100 100 100 100
100 100 100 100 100 100 100 100 100 100 100 100 100 100 100 100 100 100 100 100 100 100
100 100 100 100 100 100 100 100 100 100 100 100 100 100 100 100 100 100 100 100 100 100
100 100 100 100 100 100 100 100 100 100 100 100 100 100 100 100 100 100 100 100 100 100
100 100 100 100 100 100 100 100 100 100 100 100 100 100 100 100 100 100 100 100 100 100
100 100 100 100 100 100 100 100 100 100 100 100 100 100 100 100 100 100 100 100 100 100
100 100 100 100 100 100 100 100 100 100 100 100 100 100 100 100 100 100 100 100 100 100
100 100 100 100 100 100 100 100 100 100 100 100 100 100 100 100 100 100 100 100 100 100
100 100 100 100 100 100 100 100 100 100 100 100 100 100 100 100 100 100 100 100 100 100

GFSNIL_prec_cloud_117.txt.gz
Cloud_Cover
100 100 77 31 72 100 100 100 100 100 100 100 98 100 100 100 100 100 100 100 100 100
100 100 100 30 2 22 77 100 99 71 99 100 100 100 100 97 100 100 100 100 100 100
100 100 100 98 0 0 0 57 31 98 55 100 100 100 100 100 100 100 100 100 100 100
100 100 100 100 0 0 0 0 34 67 50 100 100 100 100 100 100 100 100 100 100 100
100 100 100 96 91 65 11 9 99 96 57 64 100 100 100 100 100 100 100 100 100 100
100 100 100 100 100 100 85 100 93 100 98 99 100 100 100 100 100 100 100 100 100 100
100 100 100 100 100 100 100 100 100 100 100 100 100 100 100 100 100 100 100 100 100 100
100 100 100 100 100 100 100 100 100 100 100 100 100 100 100 100 100 100 100 100 100 100
100 100 100 100 100 100 100 100 100 100 100 100 100 100 100 100 100 100 100 100 100 100
100 100 100 100 100 100 100 100 100 100 100 100 100 100 100 100 100 100 100 100 100 100
100 100 100 100 100 100 100 100 100 100 100 100 100 100 100 100 100 100 100 100 100 100
100 100 100 100 100 100 100 100 100 100 100 100 100 100 100 100 100 100 100 100 100 100
100 100 100 100 100 100 100 100 100 100 100 100 100 100 100 100 100 100 100 100 100 100
100 100 100 100 100 100 100 100 100 100 100 100 100 100 100 100 100 100 100 100 100 100

GFSNIL_prec_cloud_123.txt.gz
Cloud_Cover
74 100 100 100 100 96 76 67 34 58 100 100 5 7 2 89 100 100 100 100 100 100
100 100 100 100 100 100 90 75 46 88 100 100 45 0 2 74 82 100 100 100 100 100
100 100 100 100 100 100 100 100 100 98 100 100 100 5 0 47 100 100 100 100 100 100
100 100 100 100 100 100 100 100 63 100 97 25 98 95 2 4 100 100 100 100 100 100
100 100 100 100 100 100 100 100 100 100 100 76 61 23 3 3 100 100 100 100 100 100
100 100 100 100 100 100 100 100 100 100 100 100 100 100 100 97 100 100 100 100 100 91
100 100 100 100 100 100 100 100 100 100 100 100 100 100 100 100 100 99 99 92 100 100
100 100 100 100 100 100 100 100 100 100 100 100 100 100 100 100 100 100 100 100 100 100
100 100 100 100 100 100 100 100 100 100 100 100 100 100 100 100 100 100 100 100 100 100
100 100 100 100 100 100 100 100 100 100 100 100 100 100 100 100 100 100 100 100 100 100
100 100 100 100 100 100 100 100 100 100 100 100 100 100 100 100 100 100 100 100 100 100
100 100 100 100 100 100 100 100 100 100 100 100 100 100 100 100 100 100 100 100 100 100
100 100 100 100 100 100 100 100 100 100 100 100 100 100 100 100 100 100 100 100 100 100
100 100 100 100 100 100 100 100 100 100 100 100 100 100 100 100 100 100 100 100 100 100

GFSNIL_prec_cloud_126.txt.gz
Cloud_Cover
100 100 100 100 100 100 100 100 73 87 100 92 8 0 56 99 63 20 100 100 100 100
100 100 100 100 100 100 100 100 100 100 81 65 24 12 0 19 58 32 37 100 100 100
100 100 100 100 100 100 100 100 100 100 100 100 100 90 8 49 12 67 22 100 100 100
100 100 100 100 100 100 100 100 100 100 100 100 100 100 75 24 91 42 28 93 100 100
100 100 100 100 100 100 100 100 100 100 100 100 100 100 100 81 99 100 90 100 100 100
100 100 100 100 100 100 100 100 100 100 100 100 100 100 100 100 95 100 100 48 76 100
100 100 100 100 100 100 100 100 100 100 100 100 100 100 100 100 100 100 100 100 100 100
100 100 100 100 100 100 100 100 100 100 100 100 100 100 100 100 100 100 100 100 100 100
100 100 100 100 100 100 100 100 100 100 100 100 100 100 100 100 100 100 100 100 100 100
100 100 100 100 100 100 100 100 100 100 100 100 100 100 100 100 100 98 100 100 100 100
100 100 100 100 100 100 100 100 100 100 100 100 100 100 100 100 100 100 100 100 100 100
100 100 100 100 100 100 100 100 100 100 100 100 100 100 100 100 100 100 100 100 100 100
100 100 100 100 100 100 100 100 100 100 100 100 100 100 100 100 100 100 100 100 100 100
100 100 100 100 100 100 100 100 100 100 100 100 100 100 100 100 100 100 100 100 100 100

GFSNIL_prec_cloud_132.txt.gz
Cloud_Cover
100 100 100 100 100 100 100 100 100 100 100 100 100 100 100 76 19 100 100 100 100 100
100 100 100 100 100 100 100 100 100 100 100 100 100 100 100 100 100 87 96 100 100 100
100 100 100 100 100 100 100 100 100 100 100 100 100 100 100 100 100 100 98 100 100 100
100 100 100 100 100 100 100 100 100 100 100 100 100 100 100 100 100 100 100 100 100 100
100 100 100 100 100 100 100 100 100 100 100 100 100 100 100 100 100 100 100 100 100 100
100 100 100 100 100 100 100 100 100 100 100 100 100 100 100 100 100 100 100 100 100 100
100 100 100 100 100 100 100 100 100 100 100 100 100 100 100 100 100 100 100 100 100 100
100 100 100 100 100 100 100 100 100 100 100 100 100 100 100 100 100 100 100 100 100 100
100 100 100 100 100 100 100 100 100 100 100 100 100 100 100 100 100 100 100 100 100 100
100 100 100 100 100 100 100 100 100 100 100 100 100 100 100 100 100 100 100 100 100 100
100 100 100 100 100 100 100 100 100 100 100 100 100 100 100 100 100 100 100 100 100 100
100 100 100 100 100 100 100 100 100 100 100 100 100 100 100 100 100 100 100 100 100 100
100 100 100 100 100 100 100 100 100 100 100 100 100 100 100 100 100 100 100 100 100 100
100 100 100 100 100 100 100 100 100 100 100 100 100 100 100 100 100 100 100 100 100 100